| time (UTC) | temp F | wind direction | speed MPH | gust MPH | rain 1hr in | rain 24hr in | rain mn in | humidity % | barometer mb |
| 20260904200112 | 82 | 190 | 1.0 | 0.0 | 0.00 | 0.00 | 0.90 | 76 | 1011.5 |
| 20260904200001 | 82 | 188 | 1.0 | 0.0 | 0.00 | 0.00 | 0.90 | 76 | 1011.5 |
| 20260904194604 | 81 | 182 | 1.0 | 0.0 | 0.00 | 0.00 | 0.90 | 77 | 1011.7 |
| 20260904193047 | 80 | 83 | 1.0 | 0.0 | 0.00 | 0.00 | 0.90 | 80 | 1011.9 |
| 20260904191535 | 78 | 42 | 3.0 | 0.0 | 0.00 | 0.00 | 0.90 | 84 | 1012.4 |
| 20260904190030 | 77 | 42 | 3.0 | 0.0 | 0.00 | 0.00 | 0.90 | 89 | 1013.1 |
| 20260904184522 | 74 | 61 | 4.0 | 0.0 | 0.00 | 0.00 | 0.90 | 93 | 1013.5 |
| 20260904183013 | 74 | 65 | 3.0 | 0.0 | 0.00 | 0.00 | 0.90 | 95 | 1014.0 |
| 20260904181508 | 73 | 106 | 1.0 | 0.0 | 0.00 | 0.00 | 0.90 | 95 | 1014.3 |
| 20260904180050 | 73 | 109 | 1.0 | 0.0 | 0.00 | 0.00 | 0.90 | 94 | 1014.7 |
| 20260904174547 | 73 | 101 | 2.0 | 0.0 | 0.00 | 0.00 | 0.90 | 92 | 1014.5 |
| 20260904173029 | 75 | 196 | 4.0 | 0.0 | 0.00 | 0.00 | 0.63 | 90 | 1014.6 |
| 20260904171520 | 81 | 214 | 1.0 | 0.0 | 0.00 | 0.00 | 0.01 | 87 | 1013.9 |
| 20260904170004 | 83 | 206 | 2.0 | 0.0 | 0.00 | 0.00 | 0.00 | 83 | 1013.4 |
| 20260904164555 | 84 | 219 | 4.0 | 0.0 | 0.00 | 0.00 | 0.00 | 80 | 1013.4 |
| 20260904163043 | 85 | 202 | 3.0 | 0.0 | 0.00 | 0.00 | 0.00 | 76 | 1013.1 |
| 20260904161534 | 86 | 205 | 1.0 | 0.0 | 0.00 | 0.00 | 0.00 | 75 | 1013.0 |
| 20260904160025 | 85 | 56 | 0.0 | 0.0 | 0.00 | 0.00 | 0.00 | 73 | 1013.2 |
| 20260904154516 | 84 | 27 | 1.0 | 0.0 | 0.00 | 0.00 | 0.00 | 76 | 1013.2 |
| 20260904153017 | 83 | 62 | 2.0 | 0.0 | 0.00 | 0.00 | 0.00 | 78 | 1013.3 |
| 20260904151556 | 84 | 45 | 1.0 | 0.0 | 0.00 | 0.00 | 0.00 | 77 | 1013.5 |
| 20260904150059 | 81 | 46 | 2.0 | 0.0 | 0.00 | 0.00 | 0.00 | 80 | 1013.7 |
| 20260904144524 | 81 | 286 | 2.0 | 0.0 | 0.00 | 0.00 | 0.00 | 85 | 1013.6 |
| 20260904143013 | 80 | 215 | 1.0 | 0.0 | 0.00 | 0.00 | 0.00 | 86 | 1013.2 |
| 20260904141615 | 78 | 98 | 0.0 | 0.0 | 0.00 | 0.00 | 0.00 | 89 | 1013.0 |
| 20260904141502 | 78 | 98 | 0.0 | 0.0 | 0.00 | 0.00 | 0.00 | 89 | 1013.0 |
| 20260904140050 | 77 | 106 | 0.0 | 0.0 | 0.00 | 0.00 | 0.00 | 90 | 1013.1 |
| 20260904134547 | 76 | 107 | 2.0 | 0.0 | 0.00 | 0.00 | 0.00 | 92 | 1013.2 |
| 20260904133030 | 75 | 182 | 0.0 | 0.0 | 0.00 | 0.00 | 0.00 | 95 | 1013.2 |
| 20260904131520 | 73 | 183 | 0.0 | 0.0 | 0.00 | 0.00 | 0.00 | 96 | 1013.3 |
| 20260904130002 | 72 | 194 | 1.0 | 0.0 | 0.00 | 0.00 | 0.00 | 96 | 1013.5 |
| 20260904124544 | 72 | 179 | 1.0 | 0.0 | 0.00 | 0.00 | 0.00 | 97 | 1013.8 |
| 20260904123032 | 72 | 179 | 0.0 | 0.0 | 0.00 | 0.00 | 0.00 | 97 | 1013.5 |
| 20260904121518 | 71 | 179 | 0.0 | 0.0 | 0.00 | 0.00 | 0.00 | 97 | 1013.5 |
| 20260904120006 | 71 | 179 | 0.0 | 0.0 | 0.00 | 0.00 | 0.00 | 97 | 1013.3 |
| 20260904114554 | 70 | 180 | 0.0 | 0.0 | 0.00 | 0.00 | 0.00 | 97 | 1013.1 |
| 20260904113049 | 69 | 180 | 0.0 | 0.0 | 0.00 | 0.00 | 0.00 | 96 | 1012.9 |
| 20260904111533 | 69 | 180 | 0.0 | 0.0 | 0.00 | 0.00 | 0.00 | 96 | 1012.7 |
| 20260904110023 | 69 | 180 | 0.0 | 0.0 | 0.00 | 0.00 | 0.00 | 96 | 1012.5 |
| 20260904104512 | 69 | 180 | 0.0 | 0.0 | 0.00 | 0.00 | 0.00 | 96 | 1012.1 |
| 20260904103006 | 69 | 180 | 0.0 | 0.0 | 0.00 | 0.00 | 0.00 | 96 | 1011.9 |
| 20260904101556 | 69 | 180 | 0.0 | 0.0 | 0.00 | 0.00 | 0.00 | 96 | 1012.0 |
| 20260904100052 | 69 | 180 | 0.0 | 0.0 | 0.00 | 0.00 | 0.00 | 96 | 1011.9 |
| 20260904094545 | 69 | 180 | 0.0 | 0.0 | 0.00 | 0.00 | 0.00 | 96 | 1011.9 |
| 20260904093034 | 69 | 179 | 0.0 | 0.0 | 0.00 | 0.00 | 0.00 | 96 | 1011.9 |
| 20260904091525 | 69 | 179 | 0.0 | 0.0 | 0.00 | 0.00 | 0.00 | 96 | 1011.9 |
| 20260904090011 | 69 | 179 | 0.0 | 0.0 | 0.00 | 0.00 | 0.00 | 95 | 1011.7 |
| 20260904084600 | 69 | 180 | 0.0 | 0.0 | 0.00 | 0.00 | 0.00 | 95 | 1011.5 |
| 20260904084508 | 69 | 180 | 0.0 | 0.0 | 0.00 | 0.00 | 0.00 | 95 | 1011.5 |
| 20260904083051 | 69 | 180 | 0.0 | 0.0 | 0.00 | 0.00 | 0.00 | 95 | 1011.4 |
| 20260904081539 | 69 | 180 | 0.0 | 0.0 | 0.00 | 0.00 | 0.00 | 95 | 1011.5 |
| 20260904080035 | 69 | 180 | 0.0 | 0.0 | 0.00 | 0.00 | 0.00 | 94 | 1011.7 |
| 20260904074517 | 70 | 180 | 0.0 | 0.0 | 0.00 | 0.00 | 0.00 | 94 | 1011.7 |
| 20260904073010 | 70 | 179 | 0.0 | 0.0 | 0.00 | 0.00 | 0.00 | 94 | 1011.8 |
| 20260904071555 | 70 | 180 | 0.0 | 0.0 | 0.00 | 0.00 | 0.00 | 94 | 1011.9 |
| 20260904070052 | 70 | 180 | 0.0 | 0.0 | 0.00 | 0.00 | 0.00 | 94 | 1011.9 |
| 20260904064535 | 70 | 180 | 0.0 | 0.0 | 0.00 | 0.00 | 0.00 | 93 | 1011.9 |
| 20260904063026 | 71 | 179 | 0.0 | 0.0 | 0.00 | 0.00 | 0.00 | 92 | 1011.9 |
| 20260904061511 | 71 | 179 | 0.0 | 0.0 | 0.00 | 0.00 | 0.00 | 92 | 1011.9 |
| 20260904060057 | 71 | 180 | 0.0 | 0.0 | 0.00 | 0.00 | 0.00 | 92 | 1012.0 |
| 20260904060003 | 71 | 180 | 0.0 | 0.0 | 0.00 | 0.00 | 0.00 | 92 | 1012.0 |
| 20260904054553 | 72 | 180 | 1.0 | 0.0 | 0.00 | 0.00 | 0.00 | 91 | 1012.1 |
| 20260904053039 | 72 | 180 | 0.0 | 0.0 | 0.00 | 0.00 | 0.00 | 91 | 1012.2 |
| 20260904051525 | 72 | 180 | 1.0 | 0.0 | 0.00 | 0.00 | 0.00 | 91 | 1012.2 |
| 20260904050017 | 72 | 171 | 1.0 | 0.0 | 0.00 | 0.00 | 0.00 | 91 | 1012.1 |
| 20260904044507 | 72 | 182 | 1.0 | 0.0 | 0.00 | 0.00 | 0.00 | 90 | 1012.3 |
| 20260904043057 | 72 | 180 | 1.0 | 0.0 | 0.00 | 0.00 | 0.00 | 90 | 1012.2 |
| 20260904043001 | 72 | 180 | 1.0 | 0.0 | 0.00 | 0.00 | 0.00 | 90 | 1012.2 |
| 20260904041551 | 72 | 172 | 1.0 | 0.0 | 0.00 | 0.00 | 0.00 | 90 | 1012.2 |
| 20260904040025 | 72 | 160 | 0.0 | 0.0 | 0.00 | 0.00 | 0.00 | 90 | 1012.2 |
| 20260904034518 | 72 | 175 | 1.0 | 0.0 | 0.00 | 0.00 | 0.00 | 90 | 1012.2 |
| 20260904033015 | 73 | 178 | 1.0 | 0.0 | 0.00 | 0.00 | 0.00 | 90 | 1012.5 |
| 20260904031504 | 73 | 63 | 0.0 | 0.0 | 0.00 | 0.00 | 0.00 | 90 | 1012.6 |
| 20260904024537 | 73 | 60 | 0.0 | 0.0 | 0.00 | 0.00 | 0.00 | 89 | 1012.6 |
| 20260904023028 | 73 | 60 | 0.0 | 0.0 | 0.00 | 0.00 | 0.00 | 89 | 1012.7 |
| 20260904021526 | 74 | 60 | 0.0 | 0.0 | 0.00 | 0.00 | 0.00 | 88 | 1012.7 |
| 20260904020010 | 74 | 60 | 1.0 | 0.0 | 0.00 | 0.00 | 0.00 | 88 | 1012.6 |
| 20260904014508 | 74 | 59 | 2.0 | 0.0 | 0.00 | 0.00 | 0.00 | 87 | 1012.6 |
| 20260904013056 | 74 | 76 | 2.0 | 0.0 | 0.00 | 0.00 | 0.00 | 87 | 1012.8 |
| 20260904011551 | 74 | 53 | 2.0 | 0.0 | 0.00 | 0.00 | 0.00 | 87 | 1012.0 |
| 20260904010042 | 75 | 42 | 1.0 | 0.0 | 0.00 | 0.00 | 0.00 | 86 | 1012.6 |
| 20260904004532 | 75 | 41 | 1.0 | 0.0 | 0.00 | 0.00 | 0.00 | 85 | 1012.5 |
| 20260904003032 | 76 | 42 | 1.0 | 0.0 | 0.00 | 0.00 | 0.00 | 83 | 1012.3 |
| 20260904001524 | 77 | 37 | 4.0 | 0.0 | 0.00 | 0.00 | 0.00 | 80 | 1012.4 |
| 20260904000022 | 79 | 26 | 4.0 | 0.0 | 0.00 | 0.00 | 0.00 | 77 | 1012.6 |
| 20260903234515 | 80 | 105 | 7.0 | 0.0 | 0.00 | 0.00 | 0.00 | 73 | 1013.0 |
| 20260903233004 | 88 | 241 | 0.0 | 0.0 | 0.00 | 0.00 | 0.00 | 75 | 1011.5 |
| 20260903231554 | 90 | 241 | 0.0 | 0.0 | 0.00 | 0.00 | 0.00 | 73 | 1011.1 |
| 20260903230052 | 89 | 241 | 1.0 | 0.0 | 0.00 | 0.00 | 0.00 | 72 | 1011.2 |
| 20260903224550 | 90 | 277 | 1.0 | 0.0 | 0.00 | 0.00 | 0.00 | 67 | 1011.3 |
| 20260903223034 | 91 | 219 | 2.0 | 0.0 | 0.00 | 0.00 | 0.00 | 66 | 1010.9 |
| 20260903221533 | 92 | 242 | 3.0 | 0.0 | 0.00 | 0.00 | 0.00 | 65 | 1010.9 |
| 20260903220020 | 90 | 283 | 2.0 | 0.0 | 0.00 | 0.00 | 0.00 | 67 | 1011.0 |
| 20260903214513 | 90 | 265 | 2.0 | 0.0 | 0.00 | 0.00 | 0.00 | 66 | 1011.0 |
| 20260903213105 | 91 | 286 | 2.0 | 0.0 | 0.00 | 0.00 | 0.00 | 66 | 1010.8 |
| 20260903213001 | 91 | 210 | 2.0 | 0.0 | 0.00 | 0.00 | 0.00 | 65 | 1010.8 |
| 20260903211545 | 91 | 255 | 2.0 | 0.0 | 0.00 | 0.00 | 0.00 | 65 | 1010.4 |
| 20260903210048 | 91 | 232 | 4.0 | 0.0 | 0.00 | 0.00 | 0.00 | 64 | 1010.2 |
| 20260903204524 | 92 | 203 | 3.0 | 0.0 | 0.00 | 0.00 | 0.00 | 65 | 1009.9 |
| 20260903203011 | 92 | 222 | 4.0 | 0.0 | 0.00 | 0.00 | 0.00 | 64 | 1009.8 |
| 20260903201600 | 92 | 258 | 5.0 | 0.0 | 0.00 | 0.00 | 0.00 | 64 | 1009.9 |
| 20260903201503 | 92 | 215 | 5.0 | 0.0 | 0.00 | 0.00 | 0.00 | 64 | 1009.9 |